Home   Weather   Belmullet   Past weeks
Flag for Ireland

Past Weather in Belmullet, Ireland — Yesterday and Last 2 Weeks

Now
52 °F

Cool.


Feels Like: 50 °F
Forecast: 53 / 49 °F
Wind: 7 mph from Northwest

Location: Belmullet

Current Time: May 19, 2019 at 9:48:40 am

Latest Report: May 19, 2019 at 9:00 am


Visibility: 13 mi

Pressure: 29.93 "Hg

Humidity: 81%

Dew Point: 46 °F

Location of BelmulletLocation

Past Weather in Belmullet — Graph

°F

Belmullet Temperature Yesterday

Maximum temperature yesterday: 57 °F (at 1:00 pm)
Minimum temperature yesterday: 50 °F (at 4:00 am)
Average temperature yesterday: 53 °F

High & Low Weather Summary for the Past Weeks

 TemperatureHumidityPressure
High67 °F (May 14, 2:00 pm)95% (May 17, 7:00 am)30.51 "Hg (May 17, 7:00 am)
Low35 °F (May 5, 5:00 am)43% (May 12, 4:00 pm)29.38 "Hg (May 8, 7:00 am)
Average51 °F70%30.08 "Hg
* Reported May 4 8:00 am — May 19 8:00 am, Belmullet. Weather by CustomWeather, © 2019

Note: Actual official high and low records may vary slightly from our data, if they occured in-between our weather recording intervals... More about our weather records

Advertising

Belmullet Weather History for the Previous 24 Hours

Scroll right to see more
 ConditionsComfort  
Time TempWeatherWind HumidityBarometerVisibility
8:00 am
Sun, May 19
51 °FCool.7 mph83%29.92 "Hg14 mi
7:00 am50 °FCool.7 mph85%29.91 "Hg14 mi
6:00 am49 °FCool.7 mph86%29.91 "Hg16 mi
5:00 am49 °FCool.7 mph85%29.90 "Hg16 mi
4:00 am51 °FCool.8 mph84%29.90 "Hg14 mi
3:00 am51 °FCool.8 mph85%29.90 "Hg14 mi
2:00 am51 °FCool.8 mph87%29.90 "Hg12 mi
1:00 am51 °FCool.7 mph87%29.91 "Hg12 mi
12:00 am52 °FCool.7 mph87%29.91 "Hg11 mi
11:00 pm
Sat, May 18
52 °FCool.6 mph83%29.90 "Hg12 mi
10:00 pm52 °FCool.6 mph86%29.90 "Hg10 mi
9:00 pm52 °FCool.6 mph85%29.90 "Hg11 mi
8:00 pm53 °FCool.6 mph83%29.89 "Hg11 mi
7:00 pm55 °FCool.7 mph81%29.89 "Hg13 mi
6:00 pm55 °FCool.8 mph81%29.89 "Hg12 mi
5:00 pm55 °FCool.8 mph81%29.88 "Hg12 mi
4:00 pm56 °FCool.8 mph78%29.88 "Hg12 mi
3:00 pm55 °FCool.8 mph80%29.88 "Hg12 mi
2:00 pm56 °FCool.7 mph77%29.88 "Hg16 mi
1:00 pm57 °FCool.7 mph74%29.88 "Hg14 mi
12:00 pm55 °FCool.6 mph79%29.89 "Hg16 mi
11:00 am54 °FCool.7 mph84%29.89 "Hg12 mi
10:00 am53 °FCool.7 mph88%29.89 "Hg13 mi
9:00 am52 °FCool.6 mph91%29.90 "Hg9 mi
Weather by CustomWeather, © 2019

See weather overview